Location: São Paulo
(23.5507°S, 46.6334°W)
Time: 10:43:33
(UTC-03:00)

Transit 4A - Pass Details

Date: 22 February 2026
Orbit: 864 x 977 km, 66.8° (Epoch: 11 March)

Event Time Altitude Azimuth Distance (km) Brightness Sun altitude
Rises 14:15:16 0° 329° (NNW) 3,659 11.4 59.4°
Reaches altitude 10° 14:17:53 10° 325° (NW) 2,714 10.9 58.8°
Maximum altitude 14:24:08 59° 246° (WSW) 1,110 9.9 57.4°
Drops below altitude 10° 14:30:20 10° 167° (SSE) 2,688 10.3 56.1°
Sets 14:32:55 0° 162° (SSE) 3,622 10.8 55.5°
